Location: Windsor
(43.2292°N, 89.3015°W)
Time: 09:03:24
(UTC+00:00)

Tiros 1 - Pass Details

Date: 29 May 2022
Orbit: 629 x 663 km, 48.4° (Epoch: 04 July)

Event Time Altitude Azimuth Distance (km) Brightness Sun altitude
Rises 08:38:36 0° 285° (WNW) 2,921 10.3 -15.0°
Reaches altitude 10° 08:41:00 10° 291° (WNW) 2,016 9.5 -14.7°
Maximum altitude 08:45:27 44° 5° (N) 879 8.2 -14.2°
Drops below altitude 10° 08:49:56 10° 78° (ENE) 2,034 10.5 -13.7°
Sets 08:52:22 0° 85° (E) 2,949 11.3 -13.4°
